This demonstration page uses our WeatherBlox Daily Observations layout. Learn more.

Left ArrowRight Arrow

38.80484, -77.04692

Hourly Observations for September 7, 2021

Temp ( °F °C ) Dew Point ( °F °C ) Humidity (%) Winds ( mph kmh ) Pressure ( in mb ) Visibility ( mi km ) Precip ( " mm )
12:52 am 00:52 Partly Cloudy 71 21.7 61 16.1 71 71 S 3 6 29.96 1015 10 16 N/A
1:52 am 01:52 Partly Cloudy 69 20.6 64 17.8 84 84 SSE 5 7 29.96 1015 10 16 N/A
2:52 am 02:52 Partly Cloudy 69 20.6 63 17.2 81 81 SSE 3 6 29.96 1015 10 16 N/A
3:52 am 03:52 Partly Cloudy 68 20 60 15.6 76 76 SSW 3 6 29.97 1015 10 16 N/A
4:52 am 04:52 Partly Cloudy 66 18.9 59 15 78 78 SW 3 6 29.98 1015 10 16 N/A
5:52 am 05:52 Partly Cloudy 67 19.4 59 15 76 76 N N/A 29.99 1016 10 16 N/A
6:52 am 06:52 Partly Cloudy 66 18.9 60 15.6 81 81 SSW 3 6 30.00 1016 10 16 N/A
7:52 am 07:52 Partly Cloudy 70 21.1 61 16.1 73 73 SW 3 6 30.01 1016 10 16 N/A
8:52 am 08:52 Mostly Sunny 72 22.2 62 16.7 71 71 N N/A 30.02 1017 10 16 N/A
9:52 am 09:52 Mostly Sunny 74 23.3 63 17.2 69 69 SSE 6 9 30.02 1017 10 16 N/A
11:52 am 11:52 Mostly Sunny 81 27.2 63 17.2 54 54 SSE 10 17 30.01 1016 10 16 N/A
12:52 pm 12:52 Mostly Sunny 83 28.3 62 16.7 49 49 S 12 19 30.00 1016 10 16 N/A
1:52 pm 13:52 Partly Cloudy 82 27.8 60 15.6 47 47 S 13 20 29.99 1016 10 16 N/A
2:52 pm 14:52 Partly Cloudy 85 29.4 59 15 42 42 S 9 15 29.96 1015 10 16 N/A
3:52 pm 15:52 Mostly Cloudy 86 30 57 13.9 37 37 SSW 12 19 29.94 1014 10 16 N/A
4:52 pm 16:52 Partly Cloudy 84 28.9 57 13.9 40 40 S 16 26 29.93 1014 10 16 N/A
5:52 pm 17:52 Mostly Sunny 83 28.3 61 16.1 48 48 S 13 20 29.92 1013 10 16 N/A
6:52 pm 18:52 Sunny 79 26.1 62 16.7 56 56 S 12 19 29.93 1013 10 16 N/A
7:52 pm 19:52 Clear 76 24.4 64 17.8 67 67 S 10 17 29.93 1014 10 16 N/A
8:52 pm 20:52 Clear 76 24.4 62 16.7 62 62 S 9 15 29.94 1014 10 16 N/A
9:52 pm 21:52 Clear 74 23.3 64 17.8 71 71 S 9 15 29.95 1014 10 16 N/A
10:52 pm 22:52 Clear 73 22.8 65 18.3 76 76 S 9 15 29.95 1014 10 16 N/A
11:52 pm 23:52 Clear 74 23.3 63 17.2 69 69 S 12 19 29.95 1014 10 16 N/A

Powered by AerisWeather